Temp
3 2 2 1 2 1 -0 -1 -1 -2 -2 -2 -2 -3 -3 -4 -5 -5 -6 -6 -6 -6 -6 -6 -6 -6 -6 -6 -6 -6 -5 -5 -5 -4 -3 -2 -2 -1 -1 -1 -1 -1 -1
3 2 2 1 1 0 -1 -1 -1 -2 -2 -2 -3 -4 -4 -5 -5 -6 -6 -7 -7 -7 -7 -7 -7 -7 -7 -6 -6 -7 -7 -7 -6 -5 -4 -3 -2 -2 -1 -1 -1 -1 0
2 2 1 1 1 -0 -1 -1 -2 -3 -3 -4 -4 -5 -5 -6 -6 -6 -6 -7 -7 -7 -7 -8 -7 -7 -7 -7 -7 -7 -7 -6 -7 -6 -5 -5 -3 -2 -2 -1 -1 -1 -1
2 1 1 1 0 -1 -2 -2 -3 -4 -5 -5 -5 -6 -6 -6 -6 -6 -6 -7 -8 -8 -8 -8 -8 -8 -7 -7 -7 -7 -7 -6 -5 -6 -6 -5 -5 -3 -2 -2 -2 -2 -1
2 1 1 0 -1 -2 -2 -3 -4 -5 -5 -6 -6 -7 -7 -7 -7 -7 -7 -8 -8 -9 -9 -9 -9 -9 -8 -8 -8 -8 -8 -7 -6 -6 -6 -6 -5 -4 -3 -2 -3 -3 -2
2 1 0 -1 -2 -3 -4 -4 -5 -6 -6 -6 -7 -7 -8 -8 -8 -8 -8 -9 -9 -8 -9 -9 -9 -9 -9 -9 -8 -8 -8 -8 -7 -7 -6 -6 -5 -5 -4 -3 -2 -3 -3
1 0 -1 -2 -3 -4 -5 -5 -6 -6 -6 -7 -7 -8 -8 -9 -9 -9 -9 -9 -8 -9 -9 -9 -9 -9 -9 -9 -9 -8 -8 -8 -7 -7 -7 -6 -6 -5 -5 -4 -4 -2 -2
-0 -2 -2 -3 -4 -5 -5 -6 -7 -7 -7 -8 -8 -8 -9 -9 -10 -10 -9 -9 -9 -9 -9 -9 -10 -10 -9 -9 -9 -8 -8 -8 -8 -8 -7 -7 -6 -6 -5 -5 -4 -4 -4
-1 -2 -4 -4 -5 -6 -6 -7 -7 -7 -8 -8 -8 -9 -10 -10 -10 -10 -10 -10 -10 -10 -10 -10 -10 -10 -9 -10 -9 -9 -9 -9 -8 -8 -7 -7 -7 -7 -6 -5 -5 -6 -5
-2 -3 -4 -5 -6 -7 -7 -7 -7 -7 -8 -9 -9 -10 -10 -10 -10 -10 -10 -10 -10 -10 -10 -10 -10 -10 -10 -10 -10 -9 -9 -9 -9 -8 -8 -7 -7 -7 -7 -6 -6 -6 -6
-3 -4 -5 -6 -7 -7 -7 -7 -8 -9 -9 -9 -9 -10 -10 -10 -10 -10 -10 -10 -10 -10 -11 -10 -10 -10 -10 -10 -10 -10 -10 -10 -9 -9 -9 -8 -8 -7 -7 -7 -7 -6 -6
-4 -5 -6 -7 -6 -7 -7 -8 -8 -9 -9 -9 -10 -10 -10 -10 -10 -10 -10 -11 -10 -11 -11 -11 -11 -10 -10 -10 -10 -10 -10 -10 -10 -10 -9 -9 -8 -8 -8 -7 -7 -7 -7
-4 -5 -6 -6 -6 -7 -7 -8 -8 -9 -9 -10 -10 -10 -10 -10 -10 -11 -11 -11 -11 -11 -11 -11 -11 -11 -11 -11 -11 -10 -10 -10 -10 -10 -9 -9 -9 -8 -8 -8 -7 -7 -7
-5 -6 -6 -6 -7 -7 -8 -8 -9 -9 -10 -10 -10 -10 -10 -10 -11 -11 -11 -11 -12 -11 -11 -11 -11 -11 -11 -11 -11 -11 -10 -10 -10 -10 -9 -9 -9 -9 -8 -8 -8 -7 -7
-5 -5 -6 -7 -7 -8 -8 -8 -9 -9 -10 -10 -10 -11 -11 -11 -12 -12 -12 -12 -12 -12 -12 -12 -12 -12 -12 -12 -11 -11 -11 -10 -10 -9 -9 -9 -9 -9 -9 -8 -8 -8 -7
-5 -6 -7 -7 -8 -8 -8 -9 -9 -10 -10 -10 -11 -11 -12 -12 -13 -13 -13 -13 -13 -14 -13 -13 -13 -12 -12 -12 -12 -12 -11 -11 -10 -10 -10 -9 -9 -9 -9 -8 -8 -8 -8
-6 -7 -7 -8 -8 -9 -9 -9 -10 -10 -11 -11 -12 -12 -13 -13 -13 -14 -14 -14 -14 -15 -14 -14 -14 -13 -13 -13 -13 -12 -12 -11 -11 -10 -10 -10 -9 -9 -9 -8 -8 -8 -8
-7 -7 -8 -8 -9 -9 -9 -10 -11 -11 -11 -12 -13 -13 -14 -14 -14 -14 -15 -15 -15 -15 -15 -14 -14 -14 -14 -13 -13 -13 -13 -12 -11 -11 -10 -10 -9 -9 -9 -8 -8 -8 -8
-7 -8 -8 -9 -9 -10 -10 -11 -11 -12 -13 -13 -14 -14 -14 -14 -15 -15 -15 -15 -15 -15 -15 -15 -14 -14 -14 -14 -14 -13 -13 -13 -12 -12 -12 -11 -10 -10 -9 -8 -8 -8 -8
-8 -8 -9 -10 -10 -10 -11 -11 -12 -12 -13 -14 -14 -14 -15 -15 -15 -15 -15 -15 -15 -15 -15 -15 -14 -14 -14 -14 -14 -14 -14 -13 -13 -13 -12 -12 -11 -10 -10 -9 -8 -8 -8
-8 -9 -10 -10 -10 -11 -11 -12 -13 -13 -13 -14 -14 -15 -15 -15 -16 -16 -16 -16 -16 -15 -15 -14 -14 -14 -14 -13 -13 -14 -14 -13 -13 -12 -12 -12 -12 -11 -10 -9 -8 -8 -8
-9 -10 -10 -11 -11 -12 -12 -12 -13 -13 -14 -14 -15 -15 -16 -16 -16 -16 -16 -16 -16 -15 -15 -14 -14 -14 -14 -13 -13 -13 -13 -13 -13 -12 -12 -11 -12 -11 -11 -10 -9 -8 -8
-9 -10 -10 -11 -12 -13 -13 -13 -13 -14 -14 -15 -15 -15 -16 -16 -16 -16 -16 -15 -15 -15 -15 -14 -13 -13 -14 -13 -13 -13 -13 -13 -13 -12 -12 -11 -11 -11 -11 -10 -9 -9 -8
-10 -11 -11 -12 -13 -13 -13 -14 -14 -14 -15 -15 -15 -15 -15 -16 -16 -16 -16 -16 -15 -15 -14 -14 -13 -13 -13 -13 -13 -13 -13 -13 -13 -13 -12 -12 -11 -11 -11 -10 -9 -9 -8
-11 -11 -12 -12 -13 -13 -13 -14 -14 -15 -15 -15 -15 -15 -16 -16 -16 -16 -16 -16 -15 -15 -14 -13 -13 -13 -13 -13 -13 -13 -13 -13 -13 -13 -12 -12 -11 -11 -10 -10 -9 -9 -8
-11 -12 -12 -13 -13 -13 -14 -14 -15 -15 -15 -15 -16 -15 -16 -16 -16 -15 -15 -15 -15 -15 -14 -14 -14 -13 -13 -13 -13 -14 -13 -13 -13 -12 -12 -11 -11 -10 -10 -10 -9 -9 -8
Height
3136 3134 3132 3129 3126 3122 3117 3112 3107 3101 3096 3091 3086 3082 3077 3073 3068 3062 3057 3051 3045 3040 3035 3032 3030 3027 3025 3024 3021 3019 3019 3020 3017 3016 3019 3021 3022 3022 3024 3024 3027 3031 3034
3132 3130 3127 3125 3122 3118 3113 3107 3101 3096 3090 3084 3078 3071 3065 3062 3056 3051 3046 3040 3035 3030 3024 3021 3018 3016 3014 3014 3012 3011 3010 3010 3008 3007 3008 3011 3015 3014 3016 3018 3020 3024 3026
3127 3126 3123 3121 3117 3112 3108 3103 3096 3090 3084 3077 3070 3065 3061 3055 3050 3043 3037 3031 3025 3019 3014 3010 3008 3006 3003 3002 3001 3002 3001 3001 3002 3002 3001 3002 3003 3008 3009 3010 3014 3017 3020
3122 3121 3119 3115 3112 3108 3103 3097 3091 3084 3076 3069 3062 3055 3048 3041 3035 3030 3024 3018 3013 3009 3004 3000 2996 2995 2992 2992 2990 2990 2991 2991 2992 2995 2994 2994 2996 2999 3003 3004 3006 3010 3013
3118 3116 3113 3110 3107 3102 3096 3090 3084 3076 3069 3063 3055 3047 3040 3033 3027 3020 3014 3009 3004 2999 2995 2990 2986 2984 2982 2981 2979 2979 2980 2981 2981 2983 2987 2987 2988 2991 2993 2996 3000 3003 3007
3113 3111 3108 3105 3100 3095 3089 3082 3076 3070 3062 3055 3048 3039 3031 3024 3017 3011 3004 2999 2994 2990 2986 2981 2977 2974 2972 2970 2969 2968 2969 2971 2972 2973 2976 2979 2980 2983 2984 2985 2989 2991 2996
3109 3107 3104 3099 3094 3088 3081 3075 3070 3063 3055 3047 3039 3031 3024 3015 3008 3001 2995 2990 2985 2980 2976 2972 2969 2966 2963 2960 2959 2959 2958 2960 2962 2963 2966 2969 2971 2974 2976 2978 2980 2984 2990
3104 3101 3097 3092 3087 3081 3075 3069 3062 3054 3046 3039 3031 3023 3015 3007 3000 2994 2988 2982 2976 2971 2967 2963 2959 2957 2954 2952 2950 2949 2949 2950 2951 2954 2955 2958 2962 2965 2968 2972 2974 2978 2981
3097 3094 3089 3085 3080 3075 3068 3061 3052 3045 3037 3028 3020 3013 3006 2999 2993 2987 2980 2974 2968 2963 2959 2955 2950 2948 2945 2943 2941 2940 2940 2941 2942 2944 2946 2948 2952 2955 2959 2964 2968 2971 2974
3090 3086 3082 3078 3073 3066 3060 3052 3044 3035 3027 3020 3012 3005 2998 2992 2985 2979 2972 2966 2961 2956 2952 2948 2943 2940 2937 2935 2933 2932 2932 2932 2933 2934 2936 2938 2942 2946 2950 2954 2960 2963 2965
3083 3079 3075 3070 3065 3059 3052 3043 3035 3027 3019 3012 3004 2997 2991 2984 2978 2970 2964 2958 2953 2948 2943 2940 2936 2932 2930 2928 2925 2924 2923 2923 2924 2925 2927 2929 2932 2936 2941 2945 2949 2954 2958
3075 3071 3067 3063 3057 3050 3042 3034 3026 3018 3010 3003 2996 2990 2983 2976 2969 2962 2956 2951 2945 2941 2935 2931 2927 2924 2922 2920 2918 2917 2915 2915 2916 2917 2918 2921 2923 2926 2931 2935 2939 2944 2950
3068 3065 3060 3054 3047 3040 3033 3026 3018 3009 3002 2995 2988 2981 2974 2968 2961 2954 2948 2942 2936 2931 2927 2922 2919 2916 2913 2912 2910 2909 2908 2906 2907 2909 2910 2912 2914 2917 2922 2926 2930 2935 2942
3061 3057 3052 3046 3038 3031 3024 3017 3009 3001 2994 2987 2981 2973 2965 2957 2951 2945 2938 2932 2926 2921 2917 2914 2910 2907 2905 2903 2901 2900 2900 2899 2899 2900 2901 2903 2906 2909 2912 2916 2922 2927 2932
3055 3050 3045 3038 3030 3023 3016 3009 3002 2994 2986 2979 2971 2964 2955 2948 2942 2935 2929 2923 2917 2911 2907 2903 2900 2897 2895 2894 2892 2890 2890 2891 2891 2891 2893 2895 2897 2900 2903 2907 2912 2918 2922
3047 3042 3036 3029 3021 3015 3007 3000 2993 2986 2978 2969 2962 2954 2946 2939 2933 2926 2920 2913 2907 2902 2897 2893 2889 2887 2886 2884 2883 2881 2881 2881 2882 2883 2884 2886 2888 2891 2894 2898 2902 2908 2913
3039 3034 3027 3020 3012 3005 2998 2992 2984 2976 2969 2961 2952 2945 2938 2931 2924 2916 2910 2904 2898 2892 2887 2883 2879 2877 2876 2875 2874 2873 2871 2871 2873 2874 2875 2877 2879 2882 2886 2889 2893 2897 2903
3030 3024 3018 3011 3004 2996 2990 2984 2976 2968 2961 2953 2945 2937 2929 2921 2915 2908 2901 2895 2888 2883 2877 2873 2870 2867 2867 2866 2865 2864 2862 2862 2863 2865 2866 2867 2870 2872 2876 2880 2883 2888 2894
3021 3016 3009 3002 2995 2988 2982 2974 2966 2959 2953 2945 2937 2929 2920 2912 2905 2898 2891 2885 2877 2873 2868 2864 2861 2858 2859 2857 2857 2855 2854 2854 2855 2856 2857 2858 2860 2863 2866 2870 2875 2880 2885
3013 3008 3003 2996 2989 2981 2975 2967 2959 2951 2944 2937 2929 2920 2911 2903 2895 2888 2880 2874 2868 2863 2859 2855 2852 2850 2850 2850 2849 2848 2847 2847 2848 2849 2850 2851 2852 2855 2857 2861 2867 2872 2879
3006 3001 2995 2989 2981 2974 2966 2960 2953 2944 2937 2930 2921 2913 2904 2894 2886 2879 2872 2865 2859 2854 2851 2847 2845 2844 2843 2843 2842 2841 2840 2840 2841 2841 2842 2844 2845 2847 2849 2853 2858 2865 2872
2999 2994 2989 2983 2975 2967 2959 2953 2946 2940 2932 2923 2914 2905 2896 2887 2878 2870 2864 2858 2851 2846 2843 2840 2839 2838 2837 2836 2835 2834 2834 2834 2833 2833 2834 2836 2838 2839 2842 2845 2851 2858 2864
2993 2988 2982 2976 2969 2961 2954 2947 2940 2933 2925 2917 2907 2898 2890 2880 2871 2862 2856 2850 2845 2840 2837 2835 2833 2833 2831 2830 2829 2828 2827 2826 2825 2824 2825 2827 2830 2832 2834 2838 2844 2850 2856
2986 2981 2976 2969 2963 2956 2949 2942 2935 2927 2919 2910 2901 2891 2882 2873 2865 2858 2850 2844 2840 2836 2833 2831 2829 2827 2826 2824 2823 2821 2820 2818 2816 2816 2817 2819 2822 2825 2828 2833 2838 2843 2849
2979 2973 2967 2962 2957 2950 2943 2937 2929 2921 2913 2905 2895 2885 2875 2867 2860 2854 2847 2842 2838 2833 2829 2827 2824 2822 2820 2818 2815 2813 2810 2809 2809 2808 2809 2811 2814 2818 2822 2827 2832 2838 2844
2972 2966 2961 2957 2952 2946 2940 2933 2925 2917 2908 2899 2890 2880 2872 2865 2858 2851 2847 2842 2837 2833 2828 2824 2820 2817 2813 2811 2808 2806 2804 2802 2801 2801 2802 2804 2807 2811 2816 2821 2826 2832 2838
Wind_Speed
11 12 16 20 27 32 39 39 39 40 42 43 44 43 43 41 40 41 43 44 45 44 43 41 42 42 38 36 32 38 44 45 46 42 37 30 26 28 27 22 30 34 33
13 14 18 22 29 33 40 39 40 43 45 46 46 48 48 47 45 44 43 43 44 45 46 43 43 43 43 41 39 36 35 32 36 38 38 40 32 28 28 27 25 34 34
15 15 20 27 30 34 40 40 41 43 45 47 48 48 48 46 45 44 45 44 42 42 42 41 42 42 43 42 42 40 39 37 33 30 35 34 34 32 27 28 27 28 34
15 16 22 30 31 38 39 39 41 44 47 49 50 51 52 53 49 47 47 45 42 40 40 41 39 37 40 42 42 40 38 39 37 32 30 31 35 32 30 26 28 29 32
17 21 28 29 33 39 39 40 42 47 49 50 50 51 51 49 49 47 45 43 39 36 36 37 38 37 38 38 39 40 38 37 37 35 31 32 31 32 34 31 23 23 28
20 25 28 31 39 39 40 42 45 49 50 49 49 50 50 49 48 45 43 41 37 35 34 34 35 35 36 36 36 37 38 36 37 35 34 32 33 32 34 35 33 34 23
23 26 29 38 36 40 41 43 47 50 50 48 49 50 48 47 46 43 41 41 38 35 34 33 31 31 32 34 34 35 36 35 36 36 35 35 34 34 34 35 37 35 36
25 28 36 36 39 40 42 45 50 51 49 49 50 49 47 45 43 42 41 40 38 36 34 32 30 28 28 30 31 32 34 34 34 36 36 35 35 34 36 36 38 38 35
27 36 34 37 41 39 42 48 53 51 50 51 52 48 45 42 41 41 40 39 37 36 33 32 30 28 28 28 29 29 31 32 32 34 35 36 35 34 36 38 37 36 37
36 34 37 40 38 38 44 51 53 52 52 52 50 46 42 41 41 40 40 39 37 35 33 32 30 28 27 27 27 26 28 30 29 31 33 35 36 35 35 37 38 35 35
35 38 39 35 35 43 51 52 52 52 52 51 47 44 43 42 42 41 40 39 38 36 33 32 29 28 27 26 25 25 26 28 27 28 31 33 34 34 35 37 37 37 36
37 37 35 35 43 49 52 52 52 53 52 49 46 44 44 44 44 43 41 39 38 36 35 32 30 27 26 25 24 24 25 27 26 26 29 30 32 34 34 36 37 38 37
36 35 34 41 48 52 51 51 52 52 49 46 45 45 46 45 45 44 42 40 39 37 35 34 31 29 27 24 24 25 25 27 27 26 28 28 30 31 33 35 38 38 39
31 33 40 46 50 51 50 50 50 48 46 46 47 47 47 46 45 44 42 41 39 38 36 34 32 30 28 26 25 25 26 27 28 27 28 28 29 30 31 33 36 38 38
35 38 44 49 50 48 48 49 46 46 47 48 48 47 45 44 43 42 41 41 40 38 37 36 33 31 29 26 26 27 26 26 28 29 28 28 30 29 30 31 34 38 38
36 42 47 46 46 47 47 46 46 47 48 48 46 44 45 44 43 41 40 40 39 37 36 34 34 31 28 26 26 27 27 25 26 28 28 29 30 30 30 31 32 36 38
40 42 42 42 44 44 45 46 46 47 47 45 43 43 43 43 42 42 40 39 39 37 34 33 33 30 26 25 25 25 27 26 25 25 27 28 30 31 32 31 32 34 37
38 38 39 41 42 43 44 45 45 45 44 43 42 42 43 43 43 42 41 40 39 37 35 31 30 29 23 24 24 24 26 26 24 23 25 27 28 31 33 33 34 34 36
36 36 38 40 42 43 44 44 43 42 42 42 42 42 43 45 44 43 42 40 39 36 34 30 26 25 21 22 23 24 24 24 22 21 21 24 26 28 32 35 35 35 35
35 36 37 39 41 43 42 41 41 42 42 42 43 44 45 45 45 44 43 40 38 35 32 27 24 21 19 20 21 22 23 22 21 20 19 20 22 24 30 35 36 35 34
35 35 37 39 40 40 40 40 41 41 42 43 44 44 44 45 44 44 41 39 36 33 28 25 19 18 19 18 20 21 22 21 21 22 20 19 21 23 27 33 35 34 33
33 36 36 36 36 37 39 40 40 41 42 43 44 44 45 44 42 41 38 35 33 31 26 20 16 16 17 18 18 19 21 23 26 24 22 19 20 23 26 31 34 32 33
35 36 36 34 34 35 38 39 40 42 44 44 44 45 42 42 41 39 36 32 28 26 21 18 16 15 15 16 18 19 20 24 28 28 23 21 20 24 26 29 32 33 35
34 34 33 32 32 34 36 38 40 42 43 44 44 42 43 40 36 32 30 28 25 21 19 18 17 14 13 14 15 17 20 23 27 25 22 22 22 25 27 27 30 33 36
31 31 32 32 33 35 36 38 40 42 43 42 42 42 39 36 32 28 25 23 20 21 21 20 19 16 14 15 16 17 18 19 20 22 23 21 23 25 27 28 29 32 34
29 29 30 31 32 34 35 37 39 41 42 41 41 38 36 32 28 26 20 17 18 17 19 20 23 21 21 20 18 19 19 17 16 18 19 20 22 24 27 28 29 32 34
Wind_Direction
291 307 314 325 325 328 331 331 327 322 320 319 317 314 313 312 309 304 301 298 296 294 290 286 281 279 278 275 278 268 264 261 260 262 261 252 252 255 255 253 235 232 229
281 296 313 317 321 325 328 327 324 322 321 320 318 318 317 315 313 309 304 298 293 290 288 286 282 281 278 276 274 272 270 270 266 262 266 260 254 257 249 247 243 228 231
277 296 308 312 318 320 325 324 323 323 322 321 319 317 314 312 310 305 301 298 294 291 291 288 280 277 277 277 275 272 270 268 265 268 268 264 260 252 252 243 241 240 231
280 297 300 316 316 316 320 323 324 324 324 322 318 317 316 316 313 310 306 302 299 295 291 289 286 282 277 275 274 272 269 267 266 261 262 266 262 257 249 240 232 239 236
283 297 306 314 314 317 323 324 326 327 324 319 318 316 314 313 312 308 305 302 301 297 293 289 286 284 279 277 275 270 268 266 264 262 252 254 255 256 252 247 218 224 230
289 296 308 311 318 321 323 324 327 324 321 318 316 315 315 314 311 309 306 305 304 300 296 290 286 284 281 277 272 272 267 263 262 260 257 245 244 249 248 247 240 223 210
290 301 310 317 317 322 325 324 321 320 318 318 318 316 315 314 312 310 309 308 307 305 300 295 290 285 280 277 273 268 267 262 258 257 255 251 243 236 244 244 245 242 223
298 310 316 316 318 322 322 319 317 320 320 319 318 318 317 315 313 312 311 311 310 309 305 300 296 291 287 281 274 267 264 262 256 254 253 250 245 241 236 240 243 242 239
310 317 317 318 319 319 317 316 318 319 320 321 320 319 317 314 313 313 313 312 311 309 306 302 299 296 292 284 277 270 266 262 256 253 251 249 245 240 237 236 238 241 239
315 319 316 315 315 316 315 317 319 320 320 319 319 317 315 313 314 315 314 312 311 309 307 302 299 297 293 286 279 272 268 264 257 254 250 247 245 240 238 234 234 233 235
316 314 314 312 311 314 316 319 319 319 318 319 318 317 316 315 315 315 314 312 311 309 307 303 299 296 292 287 281 275 269 266 260 255 252 248 245 241 237 235 231 230 232
312 313 308 305 311 315 318 319 318 317 319 319 318 317 316 315 315 314 312 310 309 308 307 303 300 296 290 285 282 275 270 268 263 257 253 250 246 242 237 235 232 229 229
309 308 306 309 314 316 316 315 316 318 319 318 316 315 314 315 314 312 311 309 307 306 305 302 300 295 291 285 280 276 270 267 265 258 254 250 247 243 238 233 232 229 226
307 306 307 312 313 313 313 315 316 317 316 315 315 315 315 315 314 313 311 310 308 306 303 300 297 293 289 286 282 275 270 267 265 261 255 251 248 245 240 233 230 228 225
302 304 310 310 310 312 313 315 316 315 315 316 317 317 317 317 316 314 313 311 308 305 301 298 294 290 287 283 278 277 274 266 262 261 256 251 248 245 241 236 230 228 225
302 306 307 308 310 312 314 315 315 316 316 318 319 321 319 318 317 316 314 311 308 304 300 296 292 288 284 280 278 279 276 269 261 257 256 251 247 243 240 237 231 228 226
301 303 306 308 311 313 314 316 317 318 319 319 322 321 319 318 317 316 315 313 309 307 302 297 291 287 282 276 277 278 277 272 265 258 254 251 247 242 238 236 233 228 225
303 306 308 311 313 314 316 317 318 320 321 323 323 321 319 318 317 315 313 312 310 309 305 299 291 286 278 274 276 278 278 274 268 262 254 250 245 241 236 234 232 230 225
306 308 312 314 315 316 317 319 320 321 323 324 323 321 320 319 317 316 315 314 311 309 306 301 293 284 274 272 275 279 277 273 270 265 259 252 245 239 235 232 229 228 226
308 313 315 314 315 316 319 321 323 325 327 324 324 323 322 320 319 318 316 315 313 311 307 302 296 283 276 272 276 277 272 269 270 267 260 255 249 238 232 230 227 226 224
312 315 315 315 316 319 322 324 326 327 327 325 326 325 322 321 321 319 317 316 314 310 308 304 293 284 281 276 276 274 267 266 274 274 261 250 245 237 229 228 225 224 221
314 315 315 315 318 323 324 327 328 328 328 328 327 325 325 323 322 319 318 317 316 312 310 304 293 291 286 281 277 275 261 263 275 282 266 250 240 236 227 223 221 218 216
315 314 316 319 324 326 326 329 330 329 329 330 329 328 326 326 323 322 322 318 315 313 313 310 306 300 290 282 280 279 267 267 275 279 267 249 235 229 226 219 218 214 211
314 315 319 325 327 328 330 331 330 331 332 332 330 330 331 330 328 327 327 325 323 319 319 316 312 307 295 285 281 271 270 271 271 271 261 246 233 224 224 219 213 212 211
315 320 325 329 330 332 332 331 331 333 334 332 333 336 336 336 337 337 334 331 330 327 325 325 324 320 312 306 301 300 294 282 265 255 254 241 229 220 219 218 211 209 209
320 325 329 330 331 332 332 333 335 335 333 337 338 341 342 342 342 345 349 347 335 331 324 325 324 322 319 320 313 308 300 288 269 252 243 233 224 218 215 215 213 209 207